Precipitable_Water
0.33 0.31 0.30 0.30 0.31 0.31 0.32 0.32 0.33 0.32 0.32 0.29 0.20 0.25 0.15 0.16 0.13 0.20 0.24 0.26 0.23 0.17 0.13 0.16 0.15 0.13 0.16 0.22 0.20 0.22 0.20 0.19 0.20 0.20 0.20 0.18 0.20 0.19 0.17 0.16 0.17 0.16 0.16 0.14 0.13 0.14 0.11 0.12 0.10 0.12 0.13 0.13 0.14 0.17 0.17 0.17 0.15 0.16 0.10 0.15 0.14 0.17 0.08 0.07 0.08 0.11 0.12 0.14 0.15 0.17 0.16 0.14 0.13 0.11 0.12 0.11 0.09 0.10 0.09 0.08 0.10 0.08 0.10 0.09 0.06 0.05 0.08
0.30 0.30 0.30 0.30 0.31 0.30 0.30 0.31 0.32 0.32 0.31 0.24 0.24 0.18 0.15 0.15 0.15 0.18 0.22 0.27 0.22 0.17 0.10 0.11 0.13 0.15 0.18 0.18 0.17 0.22 0.20 0.20 0.18 0.18 0.18 0.17 0.16 0.16 0.16 0.18 0.18 0.14 0.17 0.14 0.11 0.14 0.09 0.12 0.12 0.11 0.13 0.12 0.18 0.17 0.16 0.16 0.11 0.11 0.09 0.10 0.13 0.10 0.06 0.09 0.06 0.05 0.09 0.11 0.13 0.14 0.15 0.15 0.12 0.10 0.11 0.12 0.12 0.12 0.11 0.11 0.13 0.09 0.12 0.09 0.06 0.05 0.07
0.29 0.30 0.30 0.30 0.30 0.30 0.30 0.31 0.32 0.32 0.31 0.30 0.25 0.17 0.17 0.16 0.20 0.17 0.19 0.21 0.20 0.13 0.17 0.14 0.13 0.14 0.14 0.15 0.15 0.17 0.17 0.20 0.20 0.20 0.17 0.20 0.18 0.17 0.14 0.15 0.16 0.14 0.15 0.13 0.13 0.13 0.11 0.09 0.13 0.12 0.12 0.12 0.17 0.16 0.14 0.14 0.12 0.14 0.15 0.14 0.18 0.11 0.07 0.07 0.04 0.04 0.04 0.04 0.04 0.06 0.07 0.09 0.12 0.12 0.11 0.12 0.11 0.10 0.09 0.07 0.09 0.08 0.09 0.07 0.07 0.07 0.10
0.29 0.29 0.30 0.30 0.30 0.30 0.31 0.31 0.31 0.32 0.31 0.27 0.26 0.18 0.21 0.14 0.10 0.15 0.16 0.19 0.17 0.18 0.21 0.17 0.14 0.13 0.13 0.13 0.14 0.16 0.14 0.18 0.20 0.22 0.17 0.20 0.18 0.17 0.17 0.16 0.16 0.13 0.13 0.11 0.11 0.11 0.13 0.11 0.10 0.12 0.11 0.13 0.15 0.15 0.14 0.13 0.12 0.14 0.14 0.13 0.14 0.10 0.10 0.07 0.06 0.05 0.05 0.06 0.08 0.12 0.11 0.10 0.09 0.09 0.11 0.11 0.12 0.12 0.10 0.10 0.09 0.06 0.06 0.07 0.09 0.08 0.07
0.28 0.28 0.29 0.30 0.30 0.30 0.31 0.31 0.31 0.31 0.31 0.30 0.25 0.19 0.18 0.16 0.12 0.13 0.11 0.17 0.16 0.15 0.18 0.16 0.18 0.13 0.17 0.12 0.15 0.12 0.14 0.15 0.16 0.21 0.14 0.17 0.16 0.15 0.14 0.13 0.12 0.11 0.12 0.10 0.10 0.11 0.11 0.12 0.11 0.10 0.11 0.13 0.14 0.17 0.14 0.13 0.13 0.14 0.12 0.12 0.12 0.10 0.10 0.07 0.08 0.07 0.08 0.09 0.09 0.11 0.11 0.09 0.10 0.09 0.10 0.11 0.11 0.11 0.10 0.07 0.06 0.08 0.08 0.05 0.07 0.07 0.07
0.28 0.28 0.29 0.30 0.30 0.30 0.31 0.30 0.31 0.30 0.29 0.28 0.28 0.15 0.19 0.12 0.14 0.18 0.19 0.17 0.12 0.13 0.13 0.18 0.15 0.17 0.16 0.13 0.16 0.13 0.13 0.14 0.12 0.16 0.16 0.16 0.17 0.12 0.13 0.13 0.12 0.12 0.11 0.11 0.08 0.10 0.10 0.10 0.09 0.12 0.12 0.12 0.13 0.14 0.15 0.11 0.11 0.12 0.11 0.12 0.09 0.08 0.07 0.07 0.08 0.07 0.09 0.09 0.09 0.10 0.10 0.10 0.10 0.10 0.10 0.10 0.10 0.11 0.08 0.08 0.09 0.09 0.06 0.05 0.07 0.07 0.07
0.28 0.28 0.29 0.30 0.29 0.29 0.30 0.30 0.30 0.31 0.28 0.29 0.27 0.14 0.17 0.18 0.17 0.17 0.21 0.14 0.14 0.15 0.15 0.18 0.16 0.15 0.15 0.14 0.15 0.13 0.12 0.11 0.13 0.13 0.12 0.13 0.12 0.15 0.08 0.09 0.11 0.12 0.12 0.12 0.09 0.10 0.08 0.07 0.11 0.10 0.11 0.10 0.10 0.09 0.12 0.13 0.12 0.09 0.10 0.10 0.10 0.10 0.08 0.08 0.08 0.07 0.08 0.09 0.09 0.10 0.10 0.10 0.10 0.10 0.11 0.10 0.10 0.10 0.10 0.09 0.10 0.09 0.08 0.08 0.08 0.08 0.07
0.27 0.29 0.29 0.29 0.28 0.28 0.29 0.29 0.29 0.30 0.29 0.29 0.20 0.19 0.15 0.13 0.14 0.13 0.18 0.17 0.15 0.15 0.15 0.16 0.15 0.12 0.14 0.11 0.13 0.14 0.13 0.11 0.13 0.14 0.13 0.09 0.10 0.15 0.10 0.10 0.12 0.13 0.12 0.12 0.09 0.11 0.12 0.11 0.09 0.12 0.11 0.11 0.12 0.09 0.09 0.08 0.10 0.09 0.08 0.09 0.10 0.09 0.08 0.08 0.08 0.08 0.08 0.09 0.09 0.10 0.10 0.10 0.09 0.11 0.11 0.10 0.10 0.10 0.10 0.10 0.10 0.10 0.09 0.09 0.08 0.08 0.07
0.28 0.29 0.29 0.28 0.28 0.27 0.28 0.28 0.28 0.27 0.32 0.21 0.19 0.17 0.21 0.19 0.21 0.18 0.14 0.12 0.14 0.15 0.14 0.15 0.14 0.12 0.13 0.12 0.13 0.13 0.13 0.11 0.13 0.11 0.16 0.12 0.10 0.13 0.10 0.12 0.12 0.13 0.13 0.12 0.12 0.15 0.14 0.14 0.13 0.14 0.14 0.10 0.11 0.10 0.09 0.11 0.08 0.08 0.08 0.08 0.08 0.09 0.07 0.09 0.08 0.07 0.07 0.09 0.08 0.09 0.09 0.10 0.10 0.10 0.10 0.10 0.09 0.09 0.10 0.09 0.10 0.08 0.08 0.08 0.08 0.07 0.08
0.28 0.28 0.28 0.28 0.28 0.27 0.27 0.27 0.27 0.26 0.27 0.21 0.19 0.15 0.21 0.21 0.21 0.22 0.19 0.12 0.15 0.13 0.14 0.14 0.14 0.10 0.13 0.14 0.13 0.13 0.13 0.14 0.15 0.10 0.15 0.15 0.16 0.15 0.15 0.14 0.13 0.12 0.12 0.11 0.13 0.16 0.17 0.16 0.18 0.17 0.16 0.15 0.13 0.12 0.11 0.11 0.08 0.08 0.08 0.09 0.08 0.08 0.08 0.08 0.07 0.07 0.07 0.08 0.09 0.08 0.09 0.09 0.09 0.09 0.10 0.10 0.10 0.11 0.11 0.11 0.11 0.11 0.10 0.08 0.07 0.07 0.09
0.28 0.27 0.28 0.29 0.28 0.27 0.27 0.27 0.26 0.25 0.28 0.20 0.18 0.17 0.20 0.18 0.16 0.17 0.18 0.12 0.13 0.15 0.14 0.13 0.11 0.12 0.15 0.15 0.13 0.15 0.13 0.13 0.13 0.09 0.08 0.16 0.14 0.17 0.17 0.15 0.13 0.11 0.12 0.15 0.20 0.21 0.20 0.18 0.16 0.16 0.16 0.15 0.14 0.14 0.13 0.12 0.11 0.09 0.08 0.09 0.09 0.08 0.08 0.08 0.09 0.06 0.07 0.08 0.08 0.08 0.08 0.06 0.06 0.10 0.12 0.11 0.10 0.10 0.08 0.08 0.09 0.09 0.10 0.09 0.09 0.09 0.10
0.28 0.27 0.28 0.29 0.29 0.27 0.26 0.26 0.26 0.25 0.25 0.25 0.24 0.20 0.23 0.23 0.22 0.20 0.15 0.10 0.11 0.16 0.14 0.11 0.12 0.13 0.13 0.14 0.14 0.13 0.12 0.12 0.12 0.15 0.10 0.12 0.15 0.17 0.17 0.15 0.15 0.11 0.17 0.23 0.21 0.20 0.18 0.17 0.16 0.16 0.16 0.16 0.16 0.15 0.14 0.12 0.11 0.11 0.10 0.08 0.08 0.08 0.08 0.08 0.08 0.07 0.07 0.08 0.08 0.07 0.06 0.06 0.10 0.12 0.12 0.13 0.12 0.12 0.10 0.09 0.10 0.10 0.10 0.10 0.09 0.09 0.10
0.28 0.27 0.28 0.29 0.29 0.27 0.26 0.25 0.25 0.24 0.25 0.27 0.25 0.18 0.23 0.24 0.22 0.17 0.16 0.12 0.10 0.13 0.11 0.11 0.15 0.14 0.14 0.15 0.13 0.13 0.13 0.14 0.15 0.15 0.15 0.14 0.14 0.16 0.17 0.16 0.14 0.16 0.23 0.20 0.19 0.16 0.13 0.11 0.12 0.13 0.13 0.14 0.15 0.16 0.15 0.13 0.12 0.12 0.10 0.10 0.08 0.08 0.08 0.08 0.08 0.08 0.09 0.08 0.07 0.05 0.06 0.09 0.11 0.11 0.13 0.14 0.13 0.12 0.10 0.08 0.10 0.10 0.10 0.10 0.09 0.10 0.10
0.28 0.27 0.28 0.28 0.29 0.28 0.26 0.25 0.24 0.24 0.25 0.24 0.21 0.21 0.23 0.24 0.19 0.17 0.15 0.11 0.10 0.14 0.14 0.13 0.14 0.12 0.13 0.14 0.13 0.13 0.14 0.13 0.14 0.16 0.12 0.16 0.15 0.15 0.19 0.21 0.21 0.24 0.23 0.21 0.18 0.16 0.12 0.12 0.10 0.10 0.10 0.10 0.11 0.11 0.13 0.13 0.12 0.11 0.10 0.10 0.09 0.08 0.09 0.09 0.07 0.10 0.07 0.07 0.07 0.07 0.08 0.08 0.10 0.11 0.12 0.12 0.10 0.10 0.09 0.07 0.08 0.10 0.11 0.11 0.10 0.10 0.10
0.27 0.27 0.27 0.27 0.28 0.29 0.28 0.26 0.25 0.24 0.24 0.25 0.23 0.22 0.22 0.23 0.22 0.20 0.18 0.14 0.09 0.12 0.15 0.09 0.11 0.12 0.13 0.13 0.14 0.12 0.12 0.12 0.12 0.11 0.15 0.17 0.16 0.18 0.20 0.22 0.25 0.23 0.23 0.19 0.15 0.15 0.12 0.11 0.07 0.06 0.07 0.07 0.05 0.06 0.10 0.09 0.11 0.12 0.11 0.10 0.09 0.09 0.08 0.08 0.08 0.09 0.09 0.07 0.07 0.07 0.07 0.06 0.08 0.11 0.13 0.14 0.14 0.13 0.12 0.10 0.08 0.11 0.12 0.11 0.10 0.10 0.10
0.27 0.26 0.27 0.27 0.27 0.27 0.27 0.26 0.25 0.25 0.24 0.25 0.22 0.21 0.22 0.24 0.25 0.24 0.17 0.13 0.11 0.07 0.11 0.15 0.16 0.14 0.13 0.13 0.14 0.13 0.11 0.11 0.11 0.11 0.11 0.13 0.15 0.18 0.21 0.24 0.24 0.23 0.21 0.18 0.15 0.12 0.10 0.07 0.06 0.06 0.05 0.06 0.08 0.08 0.07 0.08 0.08 0.11 0.11 0.10 0.09 0.09 0.10 0.09 0.09 0.08 0.08 0.08 0.07 0.07 0.06 0.07 0.09 0.12 0.13 0.14 0.14 0.13 0.13 0.10 0.08 0.12 0.12 0.11 0.11 0.10 0.11
0.26 0.26 0.26 0.27 0.27 0.27 0.26 0.24 0.23 0.23 0.23 0.24 0.21 0.21 0.20 0.26 0.22 0.20 0.16 0.14 0.14 0.09 0.17 0.18 0.17 0.16 0.13 0.12 0.14 0.12 0.13 0.11 0.11 0.09 0.09 0.09 0.13 0.15 0.18 0.21 0.23 0.23 0.19 0.15 0.13 0.11 0.09 0.08 0.08 0.07 0.08 0.09 0.07 0.07 0.08 0.08 0.07 0.07 0.10 0.11 0.10 0.09 0.09 0.09 0.09 0.08 0.09 0.08 0.07 0.07 0.08 0.07 0.10 0.12 0.13 0.14 0.14 0.13 0.12 0.07 0.07 0.11 0.12 0.12 0.12 0.11 0.11
0.25 0.25 0.26 0.26 0.27 0.27 0.26 0.25 0.23 0.22 0.22 0.23 0.21 0.19 0.20 0.24 0.24 0.22 0.16 0.12 0.10 0.11 0.17 0.19 0.15 0.12 0.11 0.13 0.11 0.14 0.16 0.14 0.13 0.13 0.11 0.12 0.13 0.13 0.15 0.18 0.14 0.20 0.21 0.13 0.11 0.10 0.08 0.07 0.07 0.06 0.06 0.10 0.09 0.10 0.06 0.07 0.07 0.07 0.07 0.08 0.08 0.08 0.08 0.09 0.07 0.08 0.09 0.09 0.08 0.08 0.09 0.12 0.13 0.13 0.14 0.14 0.14 0.12 0.08 0.06 0.09 0.12 0.12 0.12 0.12 0.12 0.12
0.25 0.25 0.26 0.26 0.26 0.25 0.25 0.24 0.24 0.24 0.23 0.25 0.23 0.20 0.18 0.22 0.21 0.22 0.15 0.12 0.11 0.08 0.15 0.20 0.21 0.17 0.17 0.20 0.16 0.15 0.16 0.15 0.14 0.10 0.09 0.09 0.11 0.15 0.16 0.16 0.19 0.13 0.15 0.11 0.12 0.09 0.08 0.08 0.09 0.09 0.08 0.09 0.09 0.08 0.09 0.08 0.07 0.09 0.09 0.07 0.08 0.10 0.09 0.09 0.09 0.09 0.08 0.08 0.08 0.07 0.08 0.11 0.13 0.13 0.14 0.14 0.12 0.08 0.08 0.11 0.14 0.13 0.12 0.13 0.13 0.12 0.12
0.24 0.24 0.25 0.26 0.25 0.25 0.24 0.22 0.21 0.20 0.21 0.21 0.21 0.16 0.19 0.21 0.21 0.19 0.14 0.10 0.13 0.11 0.16 0.16 0.18 0.15 0.19 0.15 0.12 0.12 0.13 0.14 0.13 0.11 0.10 0.09 0.13 0.15 0.13 0.10 0.13 0.15 0.13 0.13 0.09 0.10 0.08 0.07 0.08 0.09 0.08 0.09 0.10 0.11 0.09 0.09 0.10 0.08 0.09 0.10 0.08 0.08 0.08 0.08 0.08 0.09 0.10 0.09 0.08 0.07 0.06 0.10 0.13 0.13 0.13 0.15 0.10 0.10 0.13 0.13 0.13 0.14 0.13 0.13 0.13 0.13 0.13
0.24 0.24 0.25 0.25 0.25 0.24 0.23 0.22 0.21 0.20 0.19 0.20 0.20 0.16 0.15 0.20 0.21 0.21 0.20 0.13 0.11 0.09 0.12 0.20 0.21 0.19 0.19 0.17 0.18 0.16 0.16 0.12 0.12 0.11 0.11 0.12 0.15 0.14 0.08 0.06 0.10 0.11 0.10 0.10 0.08 0.08 0.09 0.09 0.09 0.08 0.10 0.09 0.10 0.10 0.08 0.08 0.09 0.12 0.11 0.10 0.09 0.12 0.08 0.08 0.09 0.10 0.08 0.08 0.08 0.08 0.10 0.12 0.14 0.12 0.10 0.12 0.13 0.14 0.15 0.14 0.12 0.14 0.14 0.13 0.13 0.13 0.13
0.24 0.24 0.25 0.25 0.25 0.24 0.23 0.22 0.21 0.20 0.20 0.20 0.19 0.17 0.14 0.18 0.20 0.20 0.20 0.17 0.12 0.11 0.14 0.20 0.22 0.20 0.22 0.23 0.22 0.22 0.20 0.19 0.20 0.20 0.14 0.12 0.15 0.13 0.12 0.13 0.12 0.12 0.13 0.13 0.11 0.10 0.11 0.10 0.11 0.10 0.09 0.10 0.12 0.09 0.10 0.08 0.07 0.11 0.12 0.11 0.08 0.12 0.09 0.10 0.08 0.11 0.09 0.09 0.09 0.11 0.11 0.12 0.13 0.13 0.13 0.14 0.15 0.15 0.15 0.15 0.14 0.14 0.14 0.15 0.13 0.13 0.14
0.24 0.24 0.24 0.24 0.24 0.24 0.23 0.22 0.21 0.20 0.20 0.20 0.20 0.17 0.14 0.17 0.18 0.21 0.21 0.12 0.18 0.20 0.21 0.20 0.22 0.22 0.23 0.24 0.26 0.26 0.25 0.26 0.25 0.22 0.21 0.15 0.11 0.13 0.12 0.13 0.12 0.16 0.15 0.14 0.11 0.11 0.11 0.10 0.09 0.11 0.10 0.11 0.10 0.09 0.10 0.10 0.09 0.10 0.09 0.12 0.10 0.12 0.12 0.12 0.11 0.11 0.12 0.12 0.12 0.12 0.12 0.12 0.13 0.14 0.15 0.15 0.15 0.16 0.16 0.15 0.14 0.15 0.15 0.15 0.14 0.14 0.13
0.24 0.24 0.24 0.24 0.24 0.24 0.23 0.23 0.22 0.21 0.21 0.21 0.20 0.18 0.17 0.19 0.20 0.19 0.17 0.16 0.13 0.11 0.15 0.19 0.17 0.12 0.14 0.15 0.21 0.25 0.25 0.24 0.24 0.24 0.26 0.23 0.12 0.11 0.15 0.18 0.18 0.16 0.16 0.16 0.17 0.13 0.12 0.12 0.11 0.12 0.09 0.11 0.11 0.09 0.09 0.09 0.10 0.11 0.11 0.11 0.12 0.12 0.12 0.11 0.10 0.12 0.11 0.09 0.12 0.12 0.12 0.12 0.13 0.14 0.15 0.16 0.16 0.16 0.16 0.16 0.16 0.15 0.16 0.15 0.15 0.14 0.14
0.25 0.25 0.24 0.24 0.24 0.24 0.24 0.24 0.23 0.22 0.22 0.21 0.20 0.21 0.21 0.19 0.20 0.20 0.16 0.09 0.11 0.12 0.07 0.11 0.13 0.17 0.21 0.24 0.25 0.23 0.24 0.26 0.27 0.25 0.24 0.24 0.19 0.14 0.12 0.17 0.20 0.16 0.15 0.16 0.17 0.15 0.14 0.11 0.11 0.10 0.09 0.12 0.11 0.09 0.12 0.10 0.10 0.12 0.10 0.11 0.12 0.11 0.14 0.11 0.11 0.11 0.10 0.10 0.11 0.11 0.12 0.13 0.13 0.14 0.14 0.14 0.16 0.17 0.17 0.17 0.17 0.16 0.16 0.16 0.15 0.15 0.14
0.25 0.26 0.25 0.25 0.25 0.25 0.24 0.24 0.23 0.23 0.22 0.21 0.22 0.20 0.17 0.17 0.21 0.22 0.18 0.16 0.15 0.12 0.09 0.08 0.12 0.21 0.23 0.21 0.19 0.22 0.26 0.26 0.25 0.24 0.24 0.24 0.23 0.22 0.20 0.19 0.17 0.21 0.19 0.17 0.17 0.14 0.13 0.13 0.12 0.12 0.10 0.11 0.14 0.11 0.11 0.12 0.11 0.13 0.12 0.12 0.13 0.13 0.13 0.10 0.11 0.10 0.11 0.12 0.13 0.13 0.13 0.13 0.13 0.14 0.15 0.16 0.16 0.17 0.17 0.17 0.17 0.16 0.16 0.15 0.15 0.14 0.14
0.24 0.24 0.24 0.25 0.26 0.26 0.26 0.26 0.26 0.24 0.23 0.23 0.22 0.22 0.20 0.20 0.23 0.20 0.18 0.17 0.14 0.10 0.11 0.09 0.13 0.17 0.20 0.17 0.22 0.25 0.25 0.25 0.24 0.24 0.23 0.23 0.23 0.24 0.22 0.20 0.18 0.17 0.17 0.15 0.16 0.15 0.14 0.13 0.12 0.11 0.12 0.12 0.14 0.13 0.13 0.12 0.12 0.12 0.12 0.13 0.15 0.13 0.11 0.11 0.11 0.10 0.10 0.11 0.11 0.12 0.11 0.11 0.12 0.14 0.15 0.16 0.17 0.17 0.17 0.17 0.17 0.16 0.15 0.15 0.14 0.14 0.14
0.23 0.24 0.23 0.24 0.24 0.25 0.25 0.26 0.27 0.27 0.26 0.25 0.24 0.22 0.23 0.20 0.21 0.22 0.22 0.21 0.14 0.11 0.10 0.11 0.12 0.15 0.22 0.18 0.23 0.25 0.26 0.26 0.25 0.24 0.23 0.22 0.23 0.22 0.21 0.20 0.20 0.17 0.17 0.16 0.14 0.14 0.14 0.13 0.12 0.15 0.14 0.15 0.13 0.13 0.15 0.15 0.14 0.13 0.13 0.13 0.15 0.13 0.12 0.11 0.10 0.10 0.10 0.11 0.12 0.13 0.13 0.13 0.13 0.15 0.16 0.17 0.17 0.17 0.17 0.17 0.17 0.17 0.16 0.16 0.15 0.14 0.14
0.23 0.24 0.25 0.25 0.25 0.25 0.26 0.27 0.28 0.28 0.28 0.28 0.27 0.24 0.22 0.24 0.26 0.24 0.24 0.24 0.22 0.15 0.15 0.15 0.17 0.15 0.12 0.15 0.25 0.23 0.26 0.26 0.25 0.24 0.23 0.23 0.22 0.22 0.21 0.21 0.20 0.19 0.19 0.18 0.17 0.16 0.15 0.15 0.16 0.14 0.14 0.16 0.14 0.13 0.13 0.12 0.12 0.11 0.12 0.15 0.15 0.15 0.14 0.12 0.11 0.11 0.12 0.12 0.13 0.14 0.14 0.13 0.14 0.16 0.16 0.17 0.18 0.18 0.18 0.18 0.18 0.17 0.16 0.16 0.16 0.15 0.13
0.22 0.23 0.24 0.24 0.25 0.26 0.27 0.28 0.29 0.29 0.29 0.28 0.27 0.21 0.18 0.18 0.24 0.25 0.26 0.23 0.22 0.19 0.14 0.13 0.11 0.13 0.20 0.21 0.19 0.22 0.23 0.25 0.25 0.25 0.24 0.23 0.22 0.22 0.22 0.20 0.20 0.20 0.19 0.18 0.17 0.15 0.17 0.16 0.17 0.18 0.19 0.20 0.15 0.15 0.13 0.13 0.12 0.12 0.14 0.15 0.16 0.16 0.15 0.14 0.13 0.12 0.12 0.14 0.14 0.15 0.15 0.15 0.16 0.17 0.17 0.18 0.18 0.18 0.18 0.18 0.18 0.17 0.17 0.17 0.16 0.15 0.14
0.23 0.23 0.23 0.24 0.26 0.26 0.26 0.27 0.28 0.29 0.27 0.25 0.23 0.16 0.16 0.14 0.19 0.28 0.26 0.25 0.25 0.21 0.17 0.17 0.14 0.17 0.16 0.21 0.22 0.19 0.21 0.23 0.23 0.24 0.24 0.23 0.23 0.23 0.24 0.23 0.23 0.22 0.19 0.19 0.18 0.18 0.18 0.16 0.17 0.18 0.20 0.20 0.18 0.16 0.14 0.13 0.12 0.13 0.15 0.16 0.17 0.17 0.15 0.14 0.14 0.14 0.14 0.14 0.15 0.15 0.16 0.16 0.17 0.17 0.17 0.17 0.18 0.18 0.18 0.19 0.18 0.18 0.18 0.17 0.17 0.16 0.14
0.24 0.23 0.22 0.22 0.23 0.23 0.24 0.25 0.25 0.26 0.26 0.23 0.20 0.18 0.18 0.19 0.23 0.28 0.28 0.26 0.26 0.22 0.17 0.15 0.14 0.15 0.14 0.17 0.20 0.22 0.22 0.23 0.23 0.23 0.24 0.24 0.22 0.24 0.24 0.24 0.22 0.24 0.21 0.19 0.20 0.19 0.17 0.19 0.18 0.18 0.18 0.22 0.20 0.16 0.16 0.14 0.13 0.13 0.15 0.17 0.18 0.18 0.17 0.15 0.14 0.14 0.15 0.15 0.15 0.15 0.15 0.16 0.17 0.16 0.16 0.17 0.18 0.19 0.19 0.19 0.19 0.18 0.18 0.18 0.17 0.16 0.15
0.25 0.25 0.24 0.23 0.23 0.22 0.22 0.22 0.22 0.22 0.21 0.23 0.25 0.27 0.27 0.27 0.27 0.27 0.28 0.28 0.23 0.19 0.20 0.16 0.14 0.15 0.14 0.15 0.20 0.21 0.22 0.21 0.21 0.21 0.20 0.24 0.21 0.23 0.21 0.23 0.23 0.22 0.26 0.21 0.18 0.17 0.20 0.19 0.19 0.18 0.20 0.21 0.18 0.17 0.16 0.14 0.14 0.16 0.17 0.18 0.18 0.18 0.18 0.18 0.16 0.15 0.15 0.16 0.16 0.14 0.14 0.15 0.16 0.18 0.18 0.18 0.19 0.19 0.19 0.19 0.19 0.18 0.18 0.17 0.17 0.16 0.14
0.26 0.26 0.26 0.27 0.27 0.26 0.25 0.24 0.24 0.24 0.26 0.24 0.19 0.20 0.24 0.26 0.26 0.26 0.27 0.24 0.20 0.20 0.20 0.16 0.14 0.13 0.14 0.19 0.16 0.19 0.21 0.17 0.17 0.19 0.16 0.22 0.22 0.22 0.20 0.21 0.22 0.19 0.20 0.18 0.19 0.19 0.20 0.20 0.18 0.19 0.20 0.18 0.20 0.17 0.15 0.15 0.16 0.17 0.17 0.18 0.18 0.19 0.19 0.18 0.17 0.15 0.15 0.16 0.16 0.17 0.17 0.17 0.18 0.18 0.18 0.18 0.19 0.19 0.20 0.19 0.19 0.18 0.17 0.17 0.17 0.16 0.15
0.25 0.25 0.26 0.27 0.27 0.27 0.28 0.27 0.24 0.22 0.19 0.20 0.21 0.24 0.27 0.27 0.26 0.25 0.25 0.23 0.18 0.16 0.16 0.16 0.17 0.14 0.13 0.14 0.14 0.16 0.22 0.19 0.17 0.19 0.16 0.19 0.23 0.19 0.20 0.18 0.20 0.16 0.18 0.23 0.19 0.19 0.18 0.19 0.21 0.18 0.16 0.20 0.18 0.15 0.15 0.16 0.16 0.17 0.18 0.18 0.18 0.18 0.19 0.18 0.17 0.16 0.16 0.17 0.17 0.17 0.18 0.18 0.17 0.17 0.17 0.18 0.18 0.19 0.19 0.19 0.19 0.18 0.17 0.17 0.17 0.16 0.15
0.24 0.25 0.25 0.26 0.27 0.26 0.25 0.25 0.23 0.21 0.19 0.18 0.20 0.25 0.27 0.28 0.28 0.26 0.26 0.25 0.21 0.16 0.15 0.15 0.16 0.14 0.14 0.12 0.12 0.16 0.22 0.19 0.19 0.19 0.19 0.19 0.19 0.21 0.20 0.19 0.15 0.18 0.22 0.20 0.17 0.19 0.18 0.22 0.19 0.16 0.19 0.16 0.15 0.16 0.16 0.17 0.17 0.17 0.18 0.18 0.18 0.18 0.18 0.19 0.18 0.17 0.17 0.17 0.17 0.17 0.17 0.18 0.17 0.17 0.18 0.18 0.19 0.19 0.19 0.19 0.19 0.18 0.18 0.17 0.17 0.16 0.15
0.24 0.24 0.25 0.24 0.23 0.22 0.18 0.18 0.22 0.21 0.20 0.23 0.25 0.27 0.27 0.26 0.28 0.26 0.23 0.23 0.23 0.23 0.17 0.16 0.15 0.14 0.15 0.15 0.17 0.19 0.20 0.15 0.19 0.18 0.18 0.17 0.16 0.19 0.18 0.17 0.15 0.19 0.20 0.18 0.18 0.17 0.19 0.23 0.19 0.17 0.17 0.16 0.17 0.19 0.19 0.19 0.18 0.18 0.18 0.18 0.18 0.19 0.19 0.20 0.20 0.19 0.17 0.16 0.16 0.17 0.17 0.17 0.17 0.18 0.17 0.18 0.18 0.19 0.19 0.19 0.19 0.18 0.17 0.17 0.17 0.16 0.15
0.24 0.24 0.23 0.20 0.19 0.16 0.15 0.17 0.20 0.25 0.28 0.26 0.27 0.22 0.21 0.20 0.17 0.18 0.18 0.17 0.19 0.21 0.18 0.18 0.15 0.16 0.19 0.16 0.14 0.20 0.20 0.17 0.20 0.16 0.17 0.18 0.17 0.16 0.18 0.16 0.17 0.17 0.14 0.15 0.17 0.20 0.20 0.19 0.18 0.17 0.18 0.20 0.21 0.21 0.20 0.20 0.20 0.20 0.20 0.19 0.19 0.19 0.20 0.22 0.21 0.19 0.17 0.15 0.15 0.16 0.17 0.17 0.17 0.17 0.17 0.17 0.18 0.18 0.19 0.20 0.20 0.19 0.19 0.18 0.17 0.17 0.16
0.22 0.22 0.20 0.20 0.17 0.15 0.15 0.18 0.26 0.27 0.25 0.24 0.22 0.16 0.16 0.17 0.16 0.14 0.14 0.16 0.17 0.16 0.17 0.17 0.15 0.17 0.17 0.16 0.17 0.23 0.19 0.17 0.17 0.17 0.15 0.20 0.17 0.14 0.17 0.14 0.16 0.17 0.14 0.14 0.16 0.19 0.15 0.16 0.17 0.17 0.17 0.20 0.21 0.21 0.21 0.20 0.20 0.20 0.20 0.20 0.20 0.20 0.21 0.22 0.22 0.20 0.17 0.16 0.16 0.17 0.18 0.17 0.17 0.17 0.18 0.18 0.18 0.19 0.20 0.20 0.20 0.19 0.19 0.18 0.18 0.17 0.16
0.21 0.18 0.18 0.17 0.16 0.18 0.23 0.26 0.27 0.24 0.22 0.18 0.17 0.15 0.12 0.15 0.13 0.12 0.16 0.13 0.13 0.16 0.16 0.14 0.17 0.18 0.18 0.16 0.15 0.16 0.24 0.19 0.15 0.15 0.16 0.18 0.22 0.15 0.17 0.17 0.17 0.16 0.12 0.13 0.15 0.19 0.16 0.14 0.16 0.16 0.17 0.21 0.22 0.22 0.21 0.21 0.20 0.20 0.20 0.21 0.21 0.21 0.22 0.23 0.23 0.22 0.20 0.18 0.18 0.19 0.19 0.19 0.19 0.18 0.18 0.18 0.18 0.19 0.19 0.20 0.20 0.20 0.19 0.18 0.18 0.17 0.16
0.20 0.19 0.19 0.17 0.19 0.22 0.23 0.24 0.24 0.20 0.16 0.14 0.14 0.14 0.13 0.12 0.14 0.15 0.14 0.12 0.12 0.13 0.17 0.16 0.17 0.16 0.18 0.19 0.18 0.16 0.22 0.23 0.21 0.22 0.20 0.16 0.21 0.21 0.17 0.14 0.18 0.14 0.13 0.12 0.16 0.18 0.16 0.16 0.16 0.17 0.19 0.23 0.23 0.23 0.22 0.21 0.20 0.20 0.21 0.22 0.21 0.21 0.22 0.23 0.24 0.22 0.20 0.19 0.19 0.19 0.20 0.20 0.20 0.19 0.19 0.19 0.19 0.19 0.20 0.20 0.20 0.20 0.19 0.18 0.18 0.17 0.17
0.21 0.21 0.21 0.24 0.23 0.23 0.22 0.20 0.17 0.15 0.15 0.15 0.12 0.11 0.12 0.12 0.14 0.13 0.14 0.11 0.12 0.13 0.15 0.16 0.14 0.15 0.16 0.18 0.18 0.19 0.20 0.24 0.22 0.21 0.19 0.15 0.21 0.18 0.15 0.16 0.16 0.13 0.12 0.14 0.17 0.16 0.16 0.14 0.15 0.17 0.21 0.24 0.24 0.24 0.22 0.21 0.21 0.21 0.21 0.22 0.22 0.22 0.23 0.24 0.23 0.23 0.21 0.20 0.19 0.19 0.20 0.20 0.20 0.20 0.19 0.19 0.19 0.20 0.20 0.21 0.20 0.20 0.19 0.19 0.19 0.18 0.17
0.25 0.25 0.24 0.21 0.20 0.19 0.18 0.14 0.15 0.14 0.12 0.11 0.11 0.10 0.12 0.11 0.12 0.11 0.12 0.15 0.17 0.15 0.15 0.19 0.17 0.21 0.21 0.22 0.19 0.21 0.19 0.23 0.21 0.20 0.18 0.16 0.20 0.18 0.15 0.14 0.14 0.12 0.14 0.18 0.16 0.15 0.14 0.15 0.16 0.18 0.22 0.23 0.24 0.24 0.23 0.22 0.22 0.22 0.23 0.23 0.22 0.22 0.23 0.24 0.24 0.23 0.21 0.20 0.20 0.20 0.20 0.21 0.20 0.20 0.20 0.20 0.20 0.20 0.21 0.21 0.21 0.20 0.20 0.19 0.19 0.18 0.17
0.23 0.22 0.19 0.19 0.16 0.17 0.16 0.11 0.15 0.13 0.12 0.12 0.11 0.09 0.11 0.10 0.12 0.13 0.12 0.13 0.15 0.15 0.17 0.15 0.16 0.15 0.14 0.19 0.17 0.18 0.20 0.23 0.25 0.21 0.18 0.19 0.16 0.14 0.14 0.12 0.13 0.16 0.17 0.14 0.15 0.13 0.15 0.17 0.19 0.20 0.22 0.24 0.24 0.24 0.24 0.23 0.23 0.23 0.24 0.23 0.23 0.23 0.24 0.25 0.25 0.23 0.21 0.21 0.20 0.21 0.21 0.21 0.21 0.20 0.20 0.20 0.20 0.20 0.20 0.21 0.21 0.21 0.20 0.20 0.19 0.18 0.18
0.18 0.17 0.17 0.15 0.14 0.15 0.13 0.11 0.14 0.12 0.10 0.11 0.12 0.11 0.11 0.10 0.12 0.13 0.12 0.16 0.16 0.15 0.17 0.17 0.17 0.16 0.15 0.18 0.19 0.19 0.20 0.17 0.22 0.18 0.15 0.16 0.14 0.15 0.14 0.13 0.15 0.16 0.14 0.13 0.14 0.14 0.15 0.16 0.20 0.21 0.23 0.23 0.24 0.24 0.24 0.24 0.24 0.24 0.24 0.23 0.22 0.23 0.24 0.25 0.24 0.23 0.21 0.20 0.20 0.21 0.21 0.21 0.21 0.20 0.20 0.20 0.20 0.20 0.21 0.21 0.22 0.21 0.20 0.20 0.19 0.19 0.18
0.16 0.15 0.15 0.13 0.11 0.14 0.13 0.11 0.12 0.11 0.12 0.13 0.12 0.12 0.12 0.13 0.14 0.14 0.17 0.17 0.16 0.16 0.16 0.17 0.17 0.17 0.15 0.18 0.16 0.15 0.18 0.18 0.17 0.17 0.17 0.16 0.14 0.13 0.15 0.17 0.16 0.13 0.13 0.13 0.13 0.13 0.15 0.18 0.20 0.21 0.23 0.24 0.24 0.24 0.25 0.25 0.25 0.25 0.24 0.22 0.22 0.23 0.25 0.25 0.25 0.23 0.22 0.21 0.21 0.21 0.21 0.21 0.21 0.21 0.20 0.20 0.20 0.20 0.21 0.22 0.22 0.21 0.21 0.20 0.19 0.19 0.19
0.17 0.18 0.17 0.16 0.13 0.14 0.15 0.12 0.12 0.13 0.13 0.14 0.15 0.15 0.15 0.15 0.16 0.16 0.17 0.18 0.17 0.18 0.18 0.18 0.18 0.18 0.16 0.16 0.16 0.16 0.17 0.18 0.16 0.17 0.18 0.14 0.14 0.15 0.16 0.14 0.12 0.13 0.13 0.13 0.14 0.15 0.17 0.20 0.21 0.22 0.24 0.24 0.24 0.25 0.25 0.25 0.25 0.25 0.24 0.23 0.23 0.24 0.25 0.26 0.25 0.23 0.22 0.21 0.21 0.21 0.21 0.21 0.21 0.21 0.20 0.20 0.20 0.21 0.21 0.22 0.22 0.22 0.21 0.20 0.20 0.20 0.19
0.15 0.18 0.18 0.13 0.13 0.14 0.12 0.14 0.16 0.16 0.16 0.16 0.16 0.16 0.17 0.17 0.16 0.15 0.17 0.18 0.19 0.19 0.17 0.17 0.16 0.17 0.16 0.18 0.18 0.15 0.16 0.17 0.16 0.16 0.17 0.16 0.16 0.14 0.13 0.12 0.12 0.14 0.16 0.15 0.15 0.19 0.19 0.20 0.21 0.23 0.24 0.25 0.25 0.25 0.26 0.26 0.26 0.25 0.24 0.23 0.24 0.25 0.26 0.26 0.25 0.23 0.22 0.21 0.21 0.21 0.21 0.22 0.22 0.21 0.20 0.20 0.20 0.21 0.21 0.22 0.22 0.22 0.21 0.21 0.20 0.20 0.19
0.20 0.18 0.16 0.15 0.16 0.15 0.15 0.17 0.17 0.15 0.16 0.17 0.17 0.18 0.17 0.17 0.16 0.17 0.18 0.19 0.19 0.18 0.19 0.17 0.17 0.17 0.14 0.16 0.15 0.15 0.14 0.16 0.14 0.14 0.15 0.15 0.14 0.12 0.12 0.11 0.12 0.12 0.16 0.18 0.18 0.19 0.20 0.22 0.23 0.24 0.25 0.26 0.26 0.27 0.27 0.26 0.26 0.25 0.25 0.24 0.24 0.26 0.27 0.27 0.26 0.24 0.22 0.22 0.21 0.21 0.22 0.22 0.22 0.22 0.21 0.20 0.20 0.20 0.22 0.22 0.23 0.22 0.22 0.21 0.20 0.20 0.19
0.20 0.19 0.20 0.18 0.17 0.17 0.18 0.18 0.17 0.15 0.17 0.17 0.17 0.17 0.18 0.17 0.17 0.18 0.20 0.18 0.19 0.19 0.19 0.19 0.19 0.16 0.15 0.15 0.13 0.13 0.14 0.16 0.15 0.14 0.14 0.13 0.14 0.14 0.13 0.11 0.13 0.14 0.17 0.20 0.20 0.21 0.22 0.23 0.24 0.25 0.26 0.26 0.27 0.28 0.28 0.27 0.27 0.26 0.25 0.25 0.26 0.27 0.27 0.27 0.26 0.24 0.23 0.22 0.21 0.22 0.22 0.22 0.22 0.22 0.21 0.20 0.20 0.21 0.22 0.22 0.22 0.22 0.22 0.21 0.21 0.20 0.20
0.22 0.20 0.19 0.21 0.17 0.17 0.18 0.15 0.16 0.15 0.16 0.17 0.17 0.18 0.18 0.17 0.18 0.18 0.21 0.20 0.19 0.18 0.17 0.15 0.16 0.15 0.14 0.14 0.13 0.12 0.13 0.15 0.14 0.13 0.14 0.14 0.15 0.14 0.13 0.12 0.14 0.18 0.20 0.21 0.22 0.23 0.23 0.24 0.25 0.25 0.26 0.26 0.28 0.28 0.28 0.28 0.27 0.27 0.26 0.26 0.26 0.27 0.28 0.28 0.26 0.24 0.23 0.22 0.22 0.22 0.22 0.22 0.23 0.22 0.22 0.21 0.21 0.21 0.21 0.22 0.23 0.22 0.22 0.21 0.21 0.21 0.20
0.19 0.18 0.18 0.20 0.20 0.20 0.20 0.20 0.19 0.19 0.19 0.19 0.19 0.20 0.20 0.18 0.20 0.20 0.22 0.21 0.19 0.16 0.15 0.17 0.16 0.14 0.14 0.12 0.14 0.14 0.15 0.14 0.13 0.13 0.13 0.15 0.17 0.15 0.15 0.16 0.18 0.20 0.21 0.21 0.22 0.23 0.24 0.25 0.26 0.26 0.26 0.27 0.28 0.29 0.29 0.28 0.28 0.27 0.27 0.26 0.27 0.27 0.28 0.28 0.26 0.24 0.23 0.22 0.22 0.22 0.22 0.23 0.23 0.23 0.22 0.21 0.21 0.21 0.21 0.22 0.23 0.23 0.22 0.22 0.21 0.21 0.21
Wind_Speed
13 14 15 15 16 16 17 16 16 15 14 10 9 9 10 10 10 10 11 10 9 10 10 9 10 10 9 9 9 9 9 9 9 10 10 10 10 11 11 12 12 13 13 13 13 13 14 14 14 14 14 15 15 15 15 15 15 15 15 15 15 15 16 17 15 14 14 14 15 17 17 19 20 22 23 23 22 22 22 21 22 22 20 20 22 22 20
13 14 15 15 16 16 16 16 15 14 12 10 9 9 10 10 11 11 12 10 8 9 9 9 9 9 9 9 10 9 10 11 10 11 12 11 11 11 12 12 13 13 13 14 14 13 13 14 15 14 14 14 14 14 15 16 16 16 16 16 16 16 16 18 17 16 15 15 16 17 18 20 21 21 23 22 22 23 22 21 21 20 20 22 23 22 21
14 15 15 16 16 16 16 15 14 13 12 9 9 9 9 9 10 12 13 13 10 9 10 9 9 9 9 10 10 10 10 11 11 11 12 12 12 12 12 12 13 13 13 13 15 15 14 14 13 13 14 13 13 14 15 15 16 16 16 16 17 16 17 18 18 17 18 18 18 19 20 21 20 21 22 22 23 23 22 22 22 21 23 25 23 22 24
14 15 15 16 16 16 15 15 14 13 12 10 9 9 9 9 9 10 12 13 12 11 11 10 9 9 9 10 11 10 10 10 10 11 12 12 13 13 13 12 12 13 13 13 15 16 15 14 13 13 13 13 13 14 14 15 16 16 16 17 17 16 17 18 18 17 17 18 19 20 21 21 20 20 22 22 22 23 22 22 22 23 25 24 22 24 28
14 15 15 16 16 16 15 15 14 13 12 10 10 10 10 9 9 9 9 10 11 11 11 11 10 9 9 10 10 10 10 10 10 11 12 12 12 12 13 13 13 13 13 13 14 14 14 14 14 13 13 13 13 13 14 15 16 16 16 17 17 16 17 18 18 17 17 19 20 20 21 21 20 20 20 21 22 23 23 23 23 24 24 24 25 28 30
15 15 16 16 16 16 15 15 14 13 12 10 10 10 10 9 9 9 9 9 10 10 11 11 11 11 10 10 10 10 11 11 11 11 11 11 12 12 13 14 14 13 12 12 12 13 13 13 13 12 13 14 13 13 13 15 17 17 17 18 18 17 17 18 18 18 18 19 20 20 21 20 19 19 19 21 22 22 22 24 24 24 24 26 29 31 31
15 15 15 16 16 16 16 15 14 12 11 11 10 10 10 10 9 10 10 10 10 10 10 10 11 12 11 11 11 11 12 12 11 11 11 11 12 13 12 13 14 13 12 12 12 12 12 12 12 12 13 14 15 15 14 15 18 19 18 19 18 18 18 18 19 19 18 18 20 21 21 20 19 18 19 21 21 21 23 25 26 26 26 28 31 32 32
15 15 16 16 17 17 16 15 14 12 11 11 11 11 10 9 9 10 10 11 11 11 10 9 10 11 11 11 11 11 12 12 11 11 12 11 12 12 12 12 13 13 13 13 12 13 13 13 13 12 13 13 15 16 16 16 18 19 19 19 19 19 18 18 19 19 18 18 20 21 21 20 19 18 19 21 22 22 23 25 28 28 29 30 31 32 30
15 15 16 17 17 17 16 15 14 12 11 10 11 11 10 10 10 10 10 11 10 10 10 9 10 11 11 11 10 10 11 12 11 11 12 12 12 12 12 12 12 13 14 13 13 14 14 14 14 13 13 14 15 16 16 17 18 19 19 19 19 20 20 19 20 21 19 19 21 22 21 20 19 19 20 21 22 23 24 26 28 29 30 31 31 30 28
15 16 16 17 17 17 16 15 14 13 11 10 10 10 10 10 10 10 10 10 10 10 10 9 10 11 11 11 10 10 11 10 10 10 11 12 12 11 11 11 11 12 13 13 13 13 14 14 14 14 14 15 15 16 17 17 18 19 19 19 20 20 21 21 21 21 20 22 24 22 21 20 19 20 21 22 22 24 26 27 28 29 30 31 30 29 29
15 16 16 17 17 17 17 16 15 13 11 10 10 9 9 9 9 10 10 10 10 10 10 10 10 10 10 10 10 10 10 10 10 11 10 11 11 11 11 11 11 12 12 12 12 12 13 13 13 14 14 14 15 16 16 17 18 19 20 20 20 20 21 22 21 21 21 24 25 22 19 20 20 20 21 22 23 25 27 28 30 30 30 29 29 30 32
15 16 16 17 17 18 17 16 15 13 12 10 10 9 9 9 9 10 10 10 10 10 10 10 10 10 10 10 11 11 11 11 11 12 11 11 11 11 11 11 11 12 11 12 11 11 12 12 13 13 13 14 15 16 16 18 18 19 20 21 21 21 22 22 21 21 22 24 24 22 20 21 21 20 21 23 24 26 28 29 30 30 30 30 30 32 33
15 16 17 17 17 18 17 16 15 14 13 11 10 10 10 9 9 10 10 10 10 10 10 10 10 10 10 10 11 11 11 11 11 12 12 11 11 12 12 12 12 12 11 11 11 12 12 13 13 14 14 14 15 15 16 17 19 19 20 21 22 22 22 22 22 22 23 23 23 22 21 21 21 20 22 24 25 28 30 30 30 29 29 29 31 32 34
16 16 17 17 17 17 17 17 16 15 14 12 10 10 10 9 9 10 10 10 10 10 9 9 9 9 9 10 10 10 10 10 11 11 12 12 12 12 12 12 12 11 11 11 12 13 14 14 15 15 15 15 16 16 16 17 18 19 20 21 22 22 22 22 22 22 22 23 22 22 22 22 21 21 23 25 26 28 30 31 31 29 28 29 31 33 34
16 17 17 18 18 17 17 16 16 15 15 13 11 11 10 10 9 9 9 10 9 9 9 9 9 9 9 9 9 9 9 9 9 10 11 11 12 12 12 12 11 11 12 13 13 14 15 16 16 16 16 17 17 17 17 18 18 19 20 22 22 22 22 23 22 22 22 23 23 23 23 22 22 22 24 25 27 28 28 30 30 28 27 29 32 34 35
16 17 18 18 18 17 17 16 16 15 14 12 11 11 11 11 10 9 10 10 9 8 9 9 8 8 9 9 8 9 9 9 9 9 10 10 11 11 12 12 11 11 12 14 15 15 16 16 17 17 17 18 18 19 19 20 20 19 20 21 21 22 22 22 22 22 22 22 23 22 22 22 23 23 24 26 28 28 28 29 29 27 29 31 33 34 36
16 17 18 18 18 17 17 17 16 16 14 13 11 11 12 12 10 9 9 10 10 9 8 8 8 8 9 9 8 9 9 9 9 10 10 10 11 11 11 12 12 12 13 14 15 16 16 17 17 18 17 18 19 20 20 21 21 20 20 21 21 22 23 22 22 22 22 22 22 22 22 22 23 23 25 27 28 28 28 28 28 29 31 33 33 35 36
16 17 18 18 18 18 17 17 16 15 15 14 13 12 12 12 10 9 9 10 10 9 8 7 8 8 9 9 9 9 9 10 10 10 11 11 11 11 11 12 13 13 14 15 16 16 17 17 18 19 18 18 19 20 20 21 22 22 22 23 22 22 23 23 23 23 22 22 22 23 22 22 23 24 26 27 27 27 27 28 29 31 33 34 34 36 36
16 17 18 18 19 19 18 18 17 16 14 13 13 13 13 13 11 9 9 10 10 9 8 7 7 8 9 9 9 9 9 10 10 11 11 11 12 12 12 13 14 14 14 15 16 17 18 18 18 19 19 19 19 20 21 21 22 22 22 23 23 23 23 23 23 23 23 22 23 24 23 23 23 25 26 26 27 28 29 29 31 33 34 35 35 36 36
15 16 17 18 19 19 19 19 18 17 16 14 13 13 14 13 12 10 9 9 11 10 9 8 8 9 9 9 10 10 10 10 11 11 12 12 12 12 13 14 14 14 15 16 17 17 18 19 18 18 19 20 20 21 21 21 21 22 22 22 22 23 23 23 23 23 23 23 23 24 24 24 24 25 27 26 27 30 31 31 32 34 34 35 35 35 36
15 16 17 18 19 19 19 19 19 18 18 16 14 14 15 15 14 13 11 10 11 11 9 8 9 9 10 10 10 11 11 11 12 12 13 13 12 13 15 15 15 15 16 17 17 18 18 19 19 19 20 20 20 21 22 22 22 22 22 22 22 22 22 23 23 23 23 23 23 24 26 25 23 25 28 28 29 31 32 32 33 33 34 35 35 35 36
15 16 17 18 19 19 19 20 19 19 18 17 15 15 16 16 15 14 12 12 12 12 10 10 10 11 11 11 11 12 12 12 13 13 13 13 13 14 15 16 15 16 17 17 18 19 19 19 20 20 21 21 21 21 22 22 22 22 22 22 22 21 22 24 24 23 23 24 25 26 28 27 25 26 28 30 31 32 31 32 32 33 34 34 35 35 37
16 17 18 18 19 20 20 20 20 19 19 18 17 17 17 16 16 14 13 13 14 13 12 11 11 11 12 12 12 13 13 13 13 13 14 14 14 15 16 16 16 17 17 18 19 20 19 20 20 21 21 21 22 22 22 22 22 22 22 22 22 22 22 24 24 24 25 26 26 27 28 29 28 28 29 29 30 31 31 31 32 33 33 34 34 35 36
15 16 17 19 20 20 21 21 22 21 21 20 19 18 17 16 16 15 14 13 13 13 12 12 11 12 13 13 13 13 14 14 14 14 15 15 15 16 16 17 17 18 18 18 19 20 20 20 21 21 21 21 21 22 22 22 22 22 22 23 23 22 22 23 24 25 26 26 26 26 27 29 29 29 29 29 30 30 30 31 32 33 33 34 34 35 36
14 15 16 18 19 20 21 21 22 22 22 21 20 19 18 17 16 15 14 14 13 12 13 12 12 13 13 13 14 14 15 15 15 15 16 16 16 17 17 18 18 18 19 19 19 19 20 21 21 21 21 21 21 22 23 23 23 22 23 24 23 22 22 24 25 25 26 27 28 28 29 30 30 30 30 30 30 30 31 31 32 33 34 34 34 35 36
14 15 16 17 18 19 20 21 21 22 22 22 21 20 19 19 18 17 16 15 14 14 14 13 13 13 13 14 14 15 15 16 16 16 17 17 17 17 18 18 18 19 19 20 20 20 21 21 21 21 22 21 22 22 23 23 23 23 23 24 23 22 23 24 26 26 27 28 29 29 30 30 29 29 29 29 30 31 32 32 32 33 34 34 34 35 36
14 15 16 17 18 19 20 21 21 22 22 23 23 22 21 20 19 18 17 17 16 15 15 15 14 13 14 14 15 16 16 16 17 17 17 17 17 18 18 19 19 19 19 20 20 21 21 21 21 22 22 22 22 23 23 23 24 24 24 22 21 22 23 24 25 27 28 28 28 28 29 30 30 30 29 29 30 32 33 33 33 33 34 34 34 35 36
13 14 15 16 17 18 19 20 20 20 21 22 22 23 23 23 22 21 20 19 18 17 16 16 15 15 15 15 16 17 17 17 17 18 18 18 18 18 19 19 19 19 20 20 21 21 21 22 22 22 22 22 23 22 23 23 23 24 24 22 20 22 24 24 25 27 28 29 29 28 28 30 31 31 30 30 31 32 33 34 34 34 34 34 35 35 36
12 12 13 14 14 15 16 17 18 18 19 19 20 21 22 23 23 23 22 21 20 19 18 17 17 17 17 17 17 17 18 18 18 18 18 19 19 19 19 20 20 20 20 21 21 22 22 22 22 22 22 23 23 23 23 23 23 24 23 21 21 23 24 24 25 28 29 29 29 28 28 30 31 31 31 31 32 33 34 34 34 34 35 35 35 36 37
12 12 13 13 13 13 14 15 16 17 18 18 18 18 19 21 22 23 23 22 21 20 19 19 18 18 18 18 18 18 19 19 19 19 19 20 20 20 20 20 20 21 21 21 21 22 22 22 22 23 22 22 23 24 24 24 24 24 23 22 22 24 25 25 26 28 29 29 28 28 30 31 31 31 32 32 32 33 34 34 35 35 35 35 35 36 37
12 12 13 13 14 14 14 14 15 16 17 17 17 17 17 19 20 21 22 22 21 20 20 20 19 19 19 19 20 20 20 21 21 20 20 21 21 21 21 21 21 21 22 22 22 22 23 23 23 23 22 22 23 24 25 25 25 25 24 23 24 25 25 26 27 28 29 29 29 29 30 31 31 31 32 32 32 32 33 34 35 35 35 35 36 36 37
10 11 12 13 13 14 15 15 16 16 17 17 18 18 18 18 19 20 21 21 21 20 20 21 20 20 20 20 21 21 22 22 22 22 21 22 22 22 21 22 22 22 22 23 22 22 23 23 23 23 23 23 24 25 25 25 25 25 25 25 25 26 26 26 27 28 28 29 29 30 31 31 30 30 31 31 32 33 34 35 35 35 35 36 36 36 37
9 9 10 11 12 13 13 14 15 16 16 17 17 18 19 19 19 19 20 20 20 21 21 21 21 21 21 21 22 22 23 23 23 23 22 22 23 23 22 22 22 22 22 22 23 23 24 24 24 24 24 24 24 25 25 24 24 25 26 26 27 27 27 27 28 28 29 29 28 29 31 31 30 30 31 32 33 34 34 35 35 35 35 36 36 37 37
7 8 8 9 10 11 11 12 13 14 15 15 16 17 18 19 19 20 19 19 20 21 21 21 21 21 22 22 22 23 24 24 24 24 24 24 24 24 23 23 23 23 23 23 23 24 24 24 25 25 24 25 25 26 26 25 25 26 27 27 28 28 28 28 29 29 29 29 29 29 30 31 31 31 32 33 33 34 34 34 35 35 36 36 37 37 37
6 6 7 8 9 10 10 11 12 12 13 14 15 16 17 18 19 20 20 20 19 20 21 21 22 22 22 22 22 24 25 25 25 25 25 25 25 25 24 24 24 24 24 24 24 24 24 25 25 26 25 25 26 26 26 26 26 26 27 28 28 28 28 29 29 29 29 29 29 29 30 30 31 32 32 33 33 33 34 34 35 35 36 37 37 37 37
5 6 6 7 8 9 10 10 11 12 12 13 14 15 16 17 18 18 19 20 20 20 20 21 21 22 23 23 23 25 25 25 25 25 25 25 25 25 25 25 25 25 25 25 24 25 25 25 26 26 26 26 26 26 26 27 27 27 28 29 29 28 28 29 29 29 29 29 29 30 30 30 31 32 32 33 33 33 34 34 35 35 36 37 37 37 38
4 5 6 7 8 9 9 10 11 11 12 13 14 15 16 16 17 17 18 19 20 21 21 21 21 22 23 23 24 25 26 26 26 26 26 26 26 26 26 26 26 26 26 25 25 26 26 26 26 27 26 26 27 28 28 28 29 29 30 30 30 29 29 29 29 29 29 29 30 30 30 31 31 32 32 33 33 33 34 35 35 36 36 37 37 37 38
4 5 6 7 8 8 9 10 11 11 12 13 14 14 15 16 16 17 18 19 20 21 21 22 22 22 23 23 24 26 26 26 26 26 26 26 27 26 26 26 27 27 27 26 26 27 27 27 27 27 27 28 30 31 31 31 30 30 30 30 30 30 30 29 29 29 29 30 30 30 30 31 31 32 32 33 33 33 34 35 35 36 36 37 37 37 37
4 5 6 7 7 8 9 10 11 12 12 13 14 14 15 16 16 17 18 19 19 20 21 22 22 22 23 24 24 26 26 26 26 26 26 27 27 27 27 27 28 28 28 27 27 28 29 28 28 28 29 30 31 32 31 31 30 30 30 30 30 30 30 30 30 30 30 30 31 30 30 31 32 32 32 33 33 34 34 35 35 36 36 37 37 37 37
4 5 6 7 8 8 9 11 12 12 12 13 14 14 15 16 17 17 18 19 19 20 21 22 22 23 24 24 25 26 26 27 27 27 27 27 27 27 27 28 28 28 28 28 29 30 30 30 29 29 30 31 32 32 32 31 31 31 31 31 31 30 30 30 31 31 31 31 31 31 31 31 32 32 32 33 33 34 34 35 35 36 36 37 37 37 37
5 5 6 7 8 9 10 11 12 12 12 13 14 15 15 16 17 18 19 19 19 20 21 22 23 23 24 25 25 26 26 27 27 27 27 27 27 27 27 28 28 28 27 28 30 30 30 31 30 30 31 33 34 34 33 33 32 32 33 33 32 31 31 31 31 31 31 31 30 31 31 31 31 32 32 32 33 34 34 35 35 36 36 37 37 37 37
6 6 7 8 9 10 10 11 12 12 12 13 14 15 16 17 18 18 19 19 20 21 22 22 23 24 25 25 26 26 27 27 27 27 27 27 28 28 28 28 28 28 28 29 30 30 30 31 31 32 33 35 35 35 34 34 34 34 34 34 32 32 31 31 31 31 31 30 31 31 31 31 31 32 32 32 33 33 34 35 35 36 36 37 37 37 38
6 7 8 9 9 10 11 11 12 12 13 14 15 16 17 17 18 19 19 20 21 22 22 23 24 24 25 26 26 26 26 27 27 27 27 28 28 28 28 28 28 28 29 30 30 30 30 31 32 33 35 36 36 36 35 35 35 36 36 35 33 33 32 32 32 32 31 31 31 31 31 31 31 32 32 32 33 33 34 35 35 36 37 37 37 38 38
7 8 9 9 10 10 11 11 12 13 13 14 15 16 17 18 18 19 20 21 21 21 22 23 24 25 26 26 26 26 26 27 27 27 27 28 28 28 28 28 29 29 30 30 30 31 32 33 34 35 37 38 38 37 36 36 36 37 37 35 34 33 33 32 32 32 32 31 31 31 31 31 32 32 32 32 33 33 34 35 35 36 37 37 37 38 38
8 9 9 10 11 11 11 12 13 14 14 15 16 16 17 19 19 19 20 22 22 22 23 24 24 25 26 26 27 26 27 27 27 27 28 28 28 28 28 29 30 30 30 30 31 32 33 34 35 36 38 38 38 37 37 37 37 38 37 36 35 34 33 32 32 32 32 32 31 31 31 31 32 32 32 32 33 33 34 35 35 36 36 37 38 38 38
9 10 10 10 11 12 12 12 14 14 15 15 16 17 17 19 20 21 21 22 23 23 24 25 25 25 26 26 27 27 27 27 27 27 28 28 28 28 29 29 30 29 30 31 32 33 34 35 37 38 39 39 39 38 37 38 38 38 38 37 36 34 33 33 32 32 32 32 31 31 31 31 32 32 32 33 33 33 34 35 35 36 36 37 37 38 38
10 10 11 11 12 12 13 13 15 15 16 16 18 18 19 20 21 22 23 24 24 24 25 25 26 26 26 26 26 27 27 27 27 27 27 28 29 29 29 29 29 29 30 31 33 34 35 37 37 38 40 40 39 39 39 39 39 39 38 38 37 35 34 33 32 32 32 32 31 31 31 31 32 32 32 33 33 33 34 35 35 36 36 37 38 38 38
11 11 11 12 12 13 14 15 16 17 17 18 19 20 21 22 22 23 23 24 25 25 25 26 26 27 27 27 27 27 27 27 27 27 28 28 29 29 29 29 29 30 30 32 34 35 36 38 39 40 41 41 40 40 40 40 39 39 39 38 38 36 35 33 33 32 32 32 31 31 31 31 32 32 32 32 33 34 34 35 35 36 36 37 37 38 38
12 12 12 13 14 14 15 16 18 18 19 20 20 21 22 23 23 24 24 24 25 25 26 26 27 27 27 27 28 27 27 27 27 28 28 29 29 29 29 30 31 31 31 32 34 36 38 39 40 41 41 42 41 41 40 40 40 40 39 39 38 37 35 34 33 33 32 32 32 32 32 32 32 32 32 32 33 33 34 35 35 35 36 36 37 37 38
13 13 13 14 15 16 16 17 18 19 19 20 21 22 22 23 24 24 24 25 25 26 26 27 27 28 28 28 28 28 27 27 27 28 29 29 29 29 29 30 31 32 32 33 35 37 39 41 41 42 43 43 42 41 41 40 40 40 40 39 39 37 36 35 34 33 32 32 32 32 32 32 32 32 32 32 33 33 34 35 35 35 36 36 37 37 38
14 14 15 15 16 17 18 18 19 20 21 22 23 23 23 24 25 25 25 25 25 26 26 27 27 28 28 29 29 29 28 28 28 28 29 29 29 29 30 31 32 33 34 36 37 39 41 41 42 43 43 43 42 42 41 41 40 40 40 40 39 38 36 35 34 33 33 32 32 32 32 32 32 32 32 32 33 33 34 35 35 35 36 36 37 37 37
15 16 16 17 18 19 20 20 21 22 23 23 24 24 24 25 25 25 25 25 26 26 27 27 27 28 29 29 29 29 29 29 29 29 29 29 29 30 31 32 33 35 37 38 39 40 41 42 42 43 43 43 43 43 42 41 41 41 41 40 39 38 37 35 34 33 33 32 32 32 32 32 32 32 32 32 32 33 33 35 35 35 36 36 37 37 37
Wind_Direction
354 352 350 349 349 348 348 349 351 353 355 358 3 9 11 11 10 6 5 10 17 25 29 25 25 33 32 30 30 26 23 24 22 20 20 19 20 23 25 24 26 29 28 28 32 34 34 35 37 38 39 34 29 24 19 15 13 13 14 13 10 7 4 358 354 359 2 2 0 356 352 352 354 355 353 351 349 346 341 337 336 332 329 329 324 319 318
355 354 354 353 353 354 354 356 359 2 7 11 15 22 24 22 21 18 16 18 21 25 30 35 36 37 41 41 37 34 33 31 30 29 27 27 27 30 34 34 34 36 35 37 41 40 39 41 40 38 37 34 29 25 21 18 17 17 16 12 9 8 7 1 357 358 359 357 355 352 349 349 350 351 352 352 349 344 341 339 336 334 337 335 325 319 322
360 359 359 359 359 360 1 3 6 9 12 15 19 26 28 24 26 27 27 31 35 34 34 41 46 46 49 46 39 39 40 35 32 33 34 34 32 35 41 40 39 41 41 45 45 41 39 40 39 36 35 34 29 24 21 18 16 17 14 8 5 6 6 4 360 358 356 353 351 348 345 344 345 347 350 350 348 345 344 341 338 337 338 333 324 321 324
6 5 5 5 6 7 8 10 12 15 18 22 25 27 24 22 27 29 32 38 41 41 40 42 49 49 48 46 39 38 44 42 38 37 39 40 39 42 45 42 42 42 41 45 45 40 39 40 39 35 30 29 26 21 18 15 13 13 10 6 4 3 4 5 360 354 351 349 346 345 343 340 340 344 347 348 348 346 344 343 341 338 333 329 329 327 323
11 11 11 11 13 13 14 15 18 21 24 26 31 33 28 27 29 26 31 39 41 43 41 38 42 41 39 43 42 41 46 48 45 43 44 44 43 45 47 42 40 39 38 43 43 39 40 39 35 31 25 21 20 17 14 13 12 11 8 6 4 360 1 3 358 350 347 345 344 345 344 340 340 343 344 346 347 345 346 345 343 339 333 329 330 328 323
17 17 16 17 17 17 18 19 22 25 28 29 34 34 30 32 35 30 32 36 36 41 40 38 43 45 43 47 49 49 51 49 48 48 48 48 43 42 46 41 37 37 33 34 39 38 37 35 28 25 22 16 13 14 12 10 10 9 6 6 4 359 359 1 356 348 345 346 345 344 343 341 342 343 343 344 345 345 345 344 342 339 335 329 329 327 324
22 21 20 20 19 19 20 22 24 26 30 32 36 39 37 41 44 38 38 42 42 44 42 42 50 50 48 52 52 52 55 53 50 47 46 49 42 36 42 39 33 34 31 29 35 32 29 29 24 20 19 14 11 13 12 8 7 6 3 3 2 358 357 359 354 347 344 346 347 345 342 341 342 343 342 342 343 342 341 341 340 337 332 329 329 327 325
25 24 22 21 21 22 22 23 25 28 32 34 39 41 40 43 47 47 51 52 48 46 44 47 56 53 49 54 53 52 55 55 53 47 41 45 41 36 42 41 33 33 33 32 35 29 24 25 23 18 16 13 11 11 8 4 3 3 2 360 358 357 357 356 352 347 346 349 348 345 342 341 340 341 342 341 340 340 340 339 339 337 334 332 331 329 329
27 25 23 23 23 23 23 24 26 29 34 39 43 44 45 50 55 59 60 52 44 47 48 49 57 55 51 54 55 54 56 55 54 49 42 40 38 36 40 40 34 34 35 34 33 27 22 22 20 16 13 10 9 8 6 1 357 359 360 357 355 355 354 353 351 348 349 349 346 344 343 343 341 339 339 339 339 339 339 338 338 337 335 334 333 332 334
27 26 25 24 23 23 24 25 27 31 37 42 46 49 53 57 57 57 57 53 45 47 50 49 54 56 51 52 53 52 55 54 49 47 45 41 37 34 32 28 29 32 32 30 25 20 18 18 15 12 10 9 9 6 4 1 357 357 356 355 355 354 351 352 351 348 348 348 345 344 345 345 344 342 340 340 339 338 337 336 336 336 336 335 334 335 335
28 27 26 25 24 24 25 26 29 32 38 43 48 53 54 55 58 57 55 55 49 45 48 51 54 55 52 51 52 52 54 52 42 39 44 42 35 31 26 20 23 28 26 21 17 15 15 14 12 10 8 7 6 3 1 360 358 356 353 352 353 351 349 351 351 347 345 345 345 343 343 344 346 346 345 342 340 338 337 335 335 335 335 335 333 333 333
30 29 27 26 25 26 27 29 31 34 40 46 51 57 56 55 59 56 51 54 53 48 51 53 50 53 54 52 52 52 52 49 41 38 42 41 34 30 25 17 18 22 21 18 17 15 12 9 5 2 359 357 357 355 355 356 356 355 352 350 349 348 348 349 349 345 342 343 345 344 344 346 346 345 345 343 340 338 335 333 332 333 334 334 333 333 334
32 30 28 27 27 28 30 32 34 38 42 46 52 58 58 55 56 56 55 56 52 49 53 55 51 52 54 54 54 53 50 47 43 38 38 36 32 28 23 17 16 18 18 17 13 5 359 357 354 350 347 347 346 345 346 351 352 352 351 350 347 347 347 347 346 345 343 344 345 344 343 344 344 342 342 341 339 338 337 336 336 337 337 336 336 335 335
33 31 30 29 29 30 32 35 39 42 45 49 56 59 59 55 55 57 58 56 51 49 53 57 56 54 53 54 55 53 47 43 39 35 31 28 26 24 19 16 15 15 12 8 1 354 351 350 348 346 345 345 345 344 344 347 348 347 348 349 347 346 346 346 346 346 345 342 340 337 335 339 343 342 342 342 340 340 339 337 337 339 339 339 338 336 335
34 33 32 32 32 32 34 36 40 44 47 52 57 60 58 53 48 49 58 62 61 55 48 49 55 56 53 50 46 43 41 37 32 30 26 22 20 18 15 13 11 8 4 358 352 351 351 349 346 346 346 345 344 344 344 344 344 343 344 346 347 346 345 345 344 344 344 341 338 338 337 339 343 344 344 345 343 341 338 335 336 341 343 341 338 337 336
37 36 34 34 34 34 36 39 42 44 47 50 55 58 54 50 49 54 63 65 62 54 47 48 53 53 48 42 33 28 28 27 24 22 19 16 15 12 9 7 3 359 356 352 350 349 348 347 345 344 344 345 343 340 340 341 341 342 341 343 345 345 344 343 341 342 343 340 338 339 338 340 343 344 343 343 342 340 338 336 338 343 343 339 338 337 336
39 39 37 36 36 36 38 41 44 46 47 47 51 55 52 50 52 55 58 59 56 51 50 53 54 46 40 36 30 23 20 18 15 10 9 11 9 5 3 0 356 352 349 347 347 346 344 344 344 341 341 343 341 338 338 338 338 339 339 339 342 343 342 342 340 340 340 339 338 337 336 338 342 344 343 342 341 340 338 337 340 342 340 338 338 337 337
42 41 39 38 38 39 39 41 44 45 46 47 52 55 53 48 46 49 56 60 58 51 48 51 47 37 30 27 25 20 16 12 8 4 5 6 2 358 357 354 352 350 346 345 345 343 342 342 341 339 339 341 340 338 338 338 337 337 338 337 339 341 341 341 340 338 338 337 336 334 334 338 342 343 342 342 340 339 337 337 339 339 338 338 338 337 337
45 43 41 41 41 41 42 42 43 44 44 46 50 53 51 46 45 49 53 56 54 51 50 48 39 31 29 25 21 17 11 6 3 1 1 359 357 355 353 349 347 347 345 342 342 341 340 340 341 339 337 337 338 337 337 337 336 337 337 337 338 339 339 339 338 338 337 336 334 333 334 339 342 342 341 340 338 338 337 337 337 337 337 337 337 337 337
47 44 43 43 43 43 43 44 45 46 47 48 50 53 50 44 43 44 46 55 61 57 49 43 36 32 29 22 16 13 8 3 359 356 354 355 355 352 348 346 345 344 342 340 340 340 339 338 340 338 335 335 337 336 335 335 335 336 337 337 337 338 338 337 337 338 337 335 334 335 337 339 339 339 339 338 335 336 337 337 336 336 336 336 336 337 337
50 47 45 45 45 45 45 46 46 47 49 49 50 54 52 46 44 47 49 57 61 53 41 37 35 30 24 18 13 10 5 2 358 354 353 354 351 346 345 346 345 342 341 340 339 339 338 337 338 336 334 335 335 334 334 333 334 336 337 335 335 337 337 336 337 338 337 335 334 336 337 337 336 335 335 334 333 335 337 336 335 335 336 336 336 337 337
52 50 49 48 48 48 48 49 48 48 49 49 49 53 54 50 48 48 47 49 51 48 43 41 35 27 21 16 11 7 4 1 357 354 353 351 347 343 343 344 343 340 339 338 337 337 337 336 335 334 333 333 332 332 334 333 332 336 336 334 333 335 336 335 335 334 333 331 330 330 332 333 333 331 331 331 332 334 335 334 334 335 335 336 336 336 337
56 54 53 52 52 51 50 51 50 49 49 48 48 52 55 53 49 47 46 49 52 49 43 37 30 23 18 14 9 6 3 359 356 353 350 347 345 342 340 340 340 339 338 336 335 336 335 334 335 333 332 332 332 331 331 330 330 333 333 330 331 333 335 336 335 332 330 328 325 324 326 329 331 331 331 332 333 334 334 334 334 334 335 335 336 336 336
59 57 56 55 54 53 53 53 53 52 51 50 50 52 54 52 49 45 44 46 46 41 33 25 20 16 13 11 7 3 0 358 355 353 350 346 344 342 341 340 339 338 337 335 335 336 335 335 335 333 331 332 332 330 329 328 330 332 332 330 330 332 333 333 332 331 331 331 330 329 329 330 331 331 331 332 333 334 334 334 334 334 334 334 335 335 336
62 60 58 57 56 55 54 54 54 53 52 51 51 51 50 48 44 40 38 38 37 34 28 22 17 15 12 9 6 2 360 357 355 353 350 347 344 342 341 341 339 337 337 337 335 335 335 334 334 332 330 332 331 329 329 330 330 332 330 329 331 333 333 331 330 329 329 329 329 328 328 329 330 331 332 333 334 334 335 334 334 334 334 334 334 334 335
65 62 61 59 58 57 55 54 54 53 52 51 49 48 47 45 42 39 38 37 35 33 29 23 18 15 12 9 6 4 1 358 355 352 349 347 344 342 341 340 339 338 338 337 336 335 334 334 334 331 331 332 331 330 330 330 330 330 328 329 333 335 332 331 331 330 328 327 328 329 329 329 330 331 332 333 334 335 335 334 334 333 333 334 334 334 335
67 64 63 62 61 60 58 57 56 55 54 52 50 48 46 44 41 38 37 35 31 29 28 25 21 18 15 12 9 7 3 0 357 354 351 349 347 344 342 341 340 339 338 337 337 336 335 335 334 333 333 333 332 331 331 331 330 329 327 329 333 332 329 330 331 331 331 332 333 334 333 332 332 333 333 333 334 334 334 334 334 334 334 334 334 334 335
69 66 65 64 64 63 61 58 55 53 52 50 49 47 46 44 42 39 37 35 31 30 32 31 27 23 18 14 11 8 5 3 360 357 355 353 351 349 346 344 343 342 340 338 338 338 336 335 336 336 336 335 333 332 332 332 330 328 327 328 327 325 326 328 329 329 329 330 331 333 332 330 332 334 334 333 334 334 334 334 334 334 334 334 334 334 335
70 66 64 63 62 60 57 53 48 46 44 43 43 43 43 42 40 39 38 37 36 35 36 35 30 24 20 16 13 10 6 3 1 358 356 355 353 351 349 347 345 344 343 340 339 338 338 338 338 337 337 336 334 333 333 332 329 329 329 327 324 322 323 323 324 325 327 329 330 331 330 329 331 333 333 332 333 333 333 334 334 334 334 334 334 334 335
71 67 64 61 57 54 51 47 43 40 38 38 39 39 38 38 37 36 35 35 34 34 34 32 28 24 21 18 14 11 8 5 2 359 357 355 353 351 349 347 346 345 344 342 341 340 340 340 339 338 337 336 334 333 333 332 331 331 330 327 324 323 323 322 322 324 326 329 330 329 328 328 330 331 331 331 332 333 333 334 335 334 334 334 334 334 335
73 68 64 60 56 52 48 45 41 38 37 37 37 35 35 34 33 31 31 31 30 30 30 30 27 24 21 17 14 12 10 7 3 0 358 356 354 353 351 348 347 345 344 343 343 342 341 341 341 341 339 337 335 333 333 332 332 332 330 327 326 325 324 324 324 324 325 327 329 328 327 327 328 330 331 332 333 333 334 334 334 335 335 334 334 334 335
74 67 62 58 54 51 47 44 42 39 37 37 37 36 34 31 29 27 27 27 27 26 26 26 24 21 17 15 14 11 8 6 4 2 359 358 356 355 353 350 348 347 346 345 344 344 344 344 343 342 340 338 337 335 334 333 331 328 327 329 330 329 326 326 326 326 326 327 328 328 328 328 329 330 332 334 334 333 333 334 334 335 335 335 335 334 335
72 65 59 54 50 46 44 42 40 38 37 37 37 35 32 28 26 24 23 24 24 23 21 21 20 18 15 14 12 10 7 6 4 3 1 360 358 356 355 354 351 349 348 347 346 347 347 346 345 343 342 340 338 337 336 333 327 323 324 328 330 330 329 328 328 327 327 327 327 327 328 330 331 332 332 333 333 333 333 334 335 335 335 335 334 335 335
68 59 51 45 40 37 34 33 31 31 31 30 29 28 26 25 24 23 21 21 21 20 19 18 17 15 13 11 11 9 7 5 4 3 2 1 359 357 357 356 355 353 351 350 349 348 348 347 346 345 344 344 341 339 337 332 326 323 325 328 329 330 330 329 327 326 326 327 327 326 327 329 331 331 331 331 332 333 334 334 334 335 335 334 334 335 335
60 49 40 33 29 26 25 24 22 22 22 22 21 21 20 19 19 19 19 18 16 15 16 15 13 12 10 8 8 8 5 3 3 2 1 0 359 358 357 357 356 354 353 352 351 349 349 349 347 346 346 346 344 340 337 333 329 329 330 330 329 330 330 328 328 328 327 327 328 327 328 329 330 329 330 331 332 333 333 334 334 334 334 334 334 335 335
49 37 27 22 19 17 17 17 17 16 16 16 15 14 12 12 13 14 15 15 13 13 12 11 10 9 7 5 5 5 3 2 2 1 360 359 359 359 358 357 356 356 355 354 352 351 350 350 348 347 348 348 343 339 336 333 332 332 332 331 331 330 329 329 330 330 330 329 329 328 329 329 329 329 330 331 332 333 333 333 333 334 334 334 334 335 335
32 21 15 13 12 11 12 12 12 11 10 9 8 7 7 8 8 8 9 10 10 11 10 8 7 7 5 3 3 2 0 0 1 360 359 359 358 358 358 356 356 356 355 354 353 353 352 350 348 347 347 345 340 337 335 334 332 331 331 330 331 330 328 329 331 331 329 329 328 328 329 329 329 329 330 331 332 333 333 333 333 334 333 334 334 335 335
14 9 7 7 8 8 9 7 5 5 4 3 2 3 4 4 4 5 5 4 4 6 6 5 4 4 2 0 0 360 359 359 359 358 359 358 357 357 357 356 355 355 354 353 354 354 351 350 349 347 345 342 338 336 335 334 332 332 331 331 330 329 328 329 330 330 328 328 327 328 329 329 329 329 330 331 332 332 333 333 334 334 334 334 334 335 335
357 360 2 2 2 2 2 1 360 359 359 359 359 0 1 1 1 1 1 0 1 2 2 1 1 0 359 358 358 358 358 357 356 356 357 357 356 356 356 355 355 354 352 352 354 353 351 350 349 348 346 344 342 341 340 339 337 336 335 333 332 330 329 329 329 328 327 327 327 329 330 329 329 330 330 331 332 332 333 333 334 334 334 334 335 335 336
347 350 352 353 354 354 354 354 354 354 355 357 358 357 357 358 358 358 357 357 358 358 358 358 358 357 356 355 355 356 356 355 354 355 355 355 354 354 353 353 354 353 351 351 354 353 350 349 349 348 346 345 345 345 344 343 340 339 337 334 332 331 330 329 329 328 327 327 327 329 329 330 330 330 330 331 332 332 333 333 334 334 335 335 335 336 336
338 341 343 345 346 346 346 348 351 351 352 354 355 355 355 355 355 354 354 354 354 354 354 354 354 354 353 353 352 352 353 354 353 353 352 353 353 352 351 352 353 352 350 351 352 351 349 348 348 347 345 343 343 344 344 342 340 339 337 335 332 331 330 329 329 329 328 327 328 328 329 329 330 330 330 331 331 332 333 333 334 335 335 335 335 335 336
327 331 334 336 338 340 340 343 347 348 349 350 351 352 352 351 351 351 351 350 350 351 350 350 350 350 351 350 349 349 350 351 351 351 351 351 351 351 350 351 351 350 349 350 351 350 348 347 346 345 343 342 342 343 343 341 340 339 337 335 333 331 330 329 329 329 328 328 327 328 328 329 329 329 329 330 331 332 332 333 334 334 334 334 335 335 336
322 326 329 329 332 335 337 338 341 344 346 347 348 348 347 347 348 348 347 347 347 347 347 347 347 347 348 348 348 348 348 348 349 349 349 349 349 349 349 349 349 348 348 349 348 347 347 346 345 344 343 343 343 342 341 340 340 339 337 335 333 331 329 329 329 329 329 328 327 327 328 329 329 329 329 330 330 331 331 332 333 334 334 334 335 335 336
318 322 325 326 327 331 333 334 337 340 341 341 342 342 342 343 345 345 344 344 344 344 344 344 344 344 345 345 345 345 346 346 347 347 347 347 347 347 346 346 346 346 347 347 346 345 346 345 343 341 340 341 342 340 339 339 339 338 337 335 333 331 330 329 329 329 329 328 327 327 328 328 328 329 329 329 330 330 330 331 333 334 334 334 334 335 336
313 318 323 325 325 327 329 331 333 335 335 335 337 337 337 337 339 340 340 341 341 341 341 341 341 341 342 343 343 343 344 344 344 344 345 345 345 345 344 344 344 345 345 345 344 344 345 344 342 340 340 341 341 339 339 339 339 338 337 336 334 332 330 329 328 329 329 328 327 327 327 327 328 328 328 329 330 330 331 331 333 334 334 334 334 335 336
309 313 319 321 321 323 325 328 329 330 331 330 330 331 332 332 333 335 336 336 337 337 338 338 339 339 340 340 340 341 341 341 341 342 343 343 342 343 343 343 343 343 343 343 342 342 342 343 343 342 342 341 340 339 338 338 338 338 337 336 334 333 331 329 328 329 329 328 328 327 327 327 328 328 328 329 330 331 331 332 333 334 334 334 334 335 336
305 308 313 316 317 319 321 322 323 325 326 326 326 327 328 329 329 330 331 332 333 334 335 336 337 337 337 338 338 338 339 339 339 340 341 340 340 341 342 342 341 341 341 340 340 340 341 341 341 341 341 340 339 338 337 337 337 337 337 335 334 333 331 329 328 328 328 328 327 327 327 327 327 328 328 329 329 330 331 332 333 333 334 334 334 335 335
301 304 308 310 312 314 316 318 319 320 321 322 323 324 325 325 326 327 328 329 330 331 332 333 334 335 336 336 336 336 337 337 337 337 339 339 338 340 340 339 339 339 339 338 338 339 339 339 339 340 340 340 339 337 337 336 336 336 336 335 334 333 331 330 329 328 328 328 327 327 327 327 327 327 328 329 329 330 331 332 333 334 334 335 335 335 335
298 301 304 307 308 310 313 316 317 318 318 318 320 321 321 322 323 324 326 327 327 328 329 331 331 332 333 334 334 334 334 334 335 336 337 336 336 337 338 337 336 337 337 337 337 336 336 337 338 338 338 338 337 337 336 336 335 335 335 335 334 333 331 329 328 327 327 328 327 327 327 327 327 328 328 328 329 330 331 332 333 334 334 334 335 335 335
296 298 300 303 306 308 310 313 315 316 316 318 319 320 320 320 321 322 323 324 325 326 327 328 329 330 331 332 332 332 332 332 333 334 333 333 334 335 335 334 334 335 336 335 335 334 334 336 337 336 336 336 336 336 335 335 335 334 334 334 333 332 331 329 327 327 327 327 327 327 327 327 327 327 327 328 329 330 331 332 333 333 334 334 335 335 335
295 296 298 300 302 305 308 311 313 313 314 316 318 318 318 319 320 321 321 322 323 324 325 326 328 329 330 329 329 329 330 330 330 330 330 331 332 333 332 332 332 333 332 332 332 333 334 335 335 335 335 335 335 335 335 334 333 333 333 333 333 332 330 329 327 327 327 327 327 327 327 327 327 327 328 329 330 331 331 331 332 333 334 335 335 335 336
292 294 297 299 301 302 303 306 308 309 311 313 316 317 317 318 319 319 319 319 320 322 323 324 326 327 326 326 327 328 328 327 327 327 328 329 329 329 328 329 329 329 329 330 332 333 333 333 333 333 334 334 334 334 334 333 332 332 332 332 332 332 330 329 327 327 327 327 327 327 327 327 328 328 328 329 330 330 330 331 332 333 334 335 336 336 336